Tracking 29892 objects as of 21-Nov-2024
HD Live streaming from Space Station
objects crossing your sky now

SL-12 R/B(AUX MOTOR)

Track SL-12 R/B(AUX MOTOR) now!
10-day predictions


NORAD ID: 19169
Int'l Code: 1988-043G
Perigee: 450.8 km
Apogee: 18,871.5 km
Inclination: 65.1 °
Period: 336.7 minutes
Semi major axis: 16032 km
RCS: 0.9186 m2 (medium)
Launch date: May 21, 1988
Source: Commonwealth of Independent States (former USSR) (CIS)
Launch site: TYURATAM MISSILE AND SPACE COMPLEX (TTMTR)

Note: This is a ROCKET BODY
Your satellite tracking list
Your tracking list is empty




NASA's NSSDC Master Catalog

Two Line Element Set (TLE):
1 19169U 88043G   24325.51202821  .00000452  00000-0  60751-3 0  9999
2 19169  65.0979 121.9719 5744910 342.7340   3.8252  4.27676569566343
Source of the keplerian elements: AFSPC